This demonstration page uses our WeatherBlox Daily Observations layout. Learn more.

Left ArrowRight Arrow

36.17497, -115.13722

Hourly Observations for November 26, 2020

Temp ( °F °C ) Dew Point ( °F °C ) Humidity (%) Winds ( mph kmh ) Pressure ( in mb ) Visibility ( mi km ) Precip ( " mm )
12:53 am 00:53 Clear 48 8.9 18 -7.8 30 30 WNW 9 15 30.01 1016 10 16 0.00 0.00
1:53 am 01:53 Clear 49 9.4 18 -7.8 29 29 NNW 10 17 30.02 1017 10 16 0.00 0.00
2:53 am 02:53 Clear 50 10 18 -7.8 28 28 NNW 13 20 30.03 1017 10 16 0.00 0.00
3:53 am 03:53 Clear 52 11.1 19 -7.2 27 27 NNW 17 28 30.03 1017 10 16 0.00 0.00
4:53 am 04:53 Clear 52 11.1 19 -7.2 27 27 NNW 17 28 30.05 1018 10 16 0.00 0.00
5:53 am 05:53 Clear 52 11.1 19 -7.2 27 27 NW 16 26 30.07 1018 10 16 0.00 0.00
6:53 am 06:53 Cloudy 51 10.6 18 -7.8 27 27 NNW 15 24 30.11 1020 10 16 0.00 0.00
7:53 am 07:53 Cloudy with Light Rain 52 11.1 16 -8.9 24 24 NNW 26 43 30.15 1021 10 16 0.00 0.00
8:53 am 08:53 Cloudy 52 11.1 15 -9.4 23 23 NNW 21 33 30.18 1022 10 16 0.00 0.00
9:53 am 09:53 Sunny with Light Rain 54 12.2 14 -10 20 20 NW 16 26 30.19 1023 10 16 0.00 0.00
10:53 am 10:53 Sunny with Light Rain 56 13.3 14 -10 19 19 NW 24 39 30.17 1022 10 16 0.00 0.00
11:53 am 11:53 Sunny 57 13.9 16 -8.9 20 20 NW 22 35 30.15 1021 10 16 0.00 0.00
12:53 pm 12:53 Sunny 58 14.4 16 -8.9 19 19 NW 23 37 30.13 1020 10 16 0.00 0.00
1:53 pm 13:53 Sunny 58 14.4 13 -10.6 17 17 NW 16 26 30.12 1020 10 16 0.00 0.00
2:53 pm 14:53 Sunny 58 14.4 11 -11.7 15 15 NW 20 31 30.12 1020 10 16 0.00 0.00
3:53 pm 15:53 Sunny 57 13.9 9 -12.8 15 15 NNW 17 28 30.13 1020 10 16 0.00 0.00
4:53 pm 16:53 Clear 55 12.8 9 -12.8 16 16 N 12 19 30.15 1021 10 16 0.00 0.00
5:53 pm 17:53 Clear 54 12.2 8 -13.3 16 16 N 15 24 30.17 1022 10 16 0.00 0.00
6:53 pm 18:53 Clear 52 11.1 8 -13.3 17 17 NNW 12 19 30.19 1022 10 16 0.00 0.00
7:53 pm 19:53 Clear 52 11.1 9 -12.8 17 17 N 15 24 30.20 1023 10 16 0.00 0.00
8:53 pm 20:53 Clear 51 10.6 11 -11.7 20 20 N 22 35 30.21 1023 10 16 0.00 0.00
9:53 pm 21:53 Clear 50 10 11 -11.7 21 21 NNW 15 24 30.23 1024 10 16 0.00 0.00
10:53 pm 22:53 Clear 49 9.4 11 -11.7 21 21 NNW 18 30 30.24 1024 10 16 0.00 0.00
11:53 pm 23:53 Clear 49 9.4 11 -11.7 21 21 NNW 20 31 30.24 1024 10 16 0.00 0.00

Powered by AerisWeather